Simultaneous Nadir Overpasses (SNOs) Predictions

Prediction of SNOs over PacNW region [( 10.00, 139.50) to ( 22.70, 165.60)] between AQUA and NPP Satellites:

Table of predicted SNOs over PacNW region for the next 30.0 days since TLE Epoch: 11/20/2021
Index Date (AQUA) Time (AQUA) AQUA Lat,Lon Date (NPP) Time (NPP) NPP Lat,Lon Distance(km) Time Diff (sec)
1 11/22/2021 02:42:34 22.67, 159.87 11/22/2021 02:39:05 25.65, 157.48 410.62 209
2 11/27/2021 15:10:10 22.59, 159.85 11/27/2021 15:12:37 23.24, 157.03 297.97 147
3 11/30/2021 03:32:00 22.66, 147.53 11/30/2021 03:28:44 22.28, 145.67 196.22 196
4 12/05/2021 15:59:35 22.59, 147.51 12/05/2021 16:03:03 23.84, 144.51 336.32 208
5 12/08/2021 02:42:32 22.70, 159.90 12/08/2021 02:39:02 26.48, 157.30 496.88 210
6 12/13/2021 15:10:06 22.62, 159.90 12/13/2021 15:12:20 23.25, 157.07 298.36 134
7 12/16/2021 03:31:54 22.64, 147.58 12/16/2021 03:28:25 22.23, 145.72 197.10 209
